| time (UTC) | temp F | wind direction | speed MPH | gust MPH | rain 1hr in | rain 24hr in | rain mn in | humidity % | barometer mb |
| 20260904100034 | 75 | 274 | 0.0 | 2.0 | 0.00 | 0.00 | 0.00 | 64 | 1019.2 |
| 20260904093034 | 76 | 274 | 0.0 | 2.0 | 0.00 | 0.00 | 0.00 | 63 | 1019.0 |
| 20260904090033 | 76 | 178 | 1.0 | 5.0 | 0.00 | 0.00 | 0.00 | 64 | 1018.9 |
| 20260904083033 | 76 | 147 | 4.0 | 9.0 | 0.00 | 0.00 | 0.00 | 63 | 1018.7 |
| 20260904080034 | 77 | 140 | 1.0 | 4.0 | 0.00 | 0.00 | 0.00 | 59 | 1018.7 |
| 20260904073034 | 78 | 119 | 2.0 | 4.0 | 0.00 | 0.00 | 0.00 | 55 | 1018.9 |
| 20260904070033 | 79 | 128 | 2.0 | 4.0 | 0.00 | 0.00 | 0.00 | 52 | 1019.0 |
| 20260904060033 | 80 | 216 | 1.0 | 3.0 | 0.00 | 0.00 | 0.00 | 49 | 1018.8 |
| 20260904053034 | 82 | 298 | 1.0 | 3.0 | 0.00 | 0.00 | 0.00 | 47 | 1018.7 |
| 20260904050034 | 82 | 272 | 3.0 | 6.0 | 0.00 | 0.00 | 0.00 | 46 | 1018.9 |
| 20260904043034 | 83 | 331 | 3.0 | 6.0 | 0.00 | 0.00 | 0.00 | 44 | 1019.0 |
| 20260904040033 | 84 | 250 | 4.0 | 8.0 | 0.00 | 0.00 | 0.00 | 44 | 1019.0 |
| 20260904033034 | 85 | 298 | 5.0 | 11.0 | 0.00 | 0.00 | 0.00 | 44 | 1019.3 |
| 20260904023034 | 87 | 204 | 4.0 | 7.0 | 0.00 | 0.00 | 0.00 | 41 | 1018.2 |
| 20260904020033 | 88 | 200 | 4.0 | 8.0 | 0.00 | 0.00 | 0.00 | 40 | 1018.0 |
| 20260904013034 | 89 | 201 | 3.0 | 6.0 | 0.00 | 0.00 | 0.00 | 39 | 1017.8 |
| 20260904010034 | 90 | 0 | 0.0 | 0.0 | 0.00 | 0.00 | 0.00 | 36 | 1017.7 |
| 20260904003034 | 91 | 276 | 1.0 | 3.0 | 0.00 | 0.00 | 0.00 | 36 | 1018.0 |
| 20260904000033 | 92 | 283 | 3.0 | 8.0 | 0.00 | 0.00 | 0.00 | 36 | 1018.3 |
| 20260903233034 | 94 | 281 | 4.0 | 12.0 | 0.00 | 0.00 | 0.00 | 33 | 1018.2 |
| 20260903230033 | 94 | 158 | 4.0 | 10.0 | 0.00 | 0.00 | 0.00 | 33 | 1017.5 |
| 20260903223034 | 97 | 155 | 6.0 | 12.0 | 0.00 | 0.00 | 0.00 | 32 | 1017.5 |
| 20260903213033 | 93 | 146 | 11.0 | 21.0 | 0.00 | 0.00 | 0.00 | 34 | 1017.8 |
| 20260903210033 | 97 | 131 | 8.0 | 15.0 | 0.00 | 0.00 | 0.00 | 31 | 1018.1 |
| 20260903193034 | 105 | 193 | 4.0 | 10.0 | 0.00 | 0.00 | 0.00 | 24 | 1018.4 |
| 20260903190034 | 105 | 191 | 4.0 | 9.0 | 0.00 | 0.00 | 0.00 | 25 | 1019.0 |
| 20260903183034 | 103 | 240 | 5.0 | 13.0 | 0.00 | 0.00 | 0.00 | 26 | 1019.6 |
| 20260903180033 | 101 | 223 | 4.0 | 9.0 | 0.00 | 0.00 | 0.00 | 28 | 1020.0 |
| 20260903173034 | 98 | 234 | 4.0 | 10.0 | 0.00 | 0.00 | 0.00 | 32 | 1020.3 |
| 20260903170034 | 95 | 230 | 5.0 | 11.0 | 0.00 | 0.00 | 0.00 | 35 | 1020.6 |
| 20260903163034 | 90 | 228 | 6.0 | 10.0 | 0.00 | 0.00 | 0.00 | 42 | 1020.7 |
| 20260903160034 | 88 | 200 | 4.0 | 9.0 | 0.00 | 0.00 | 0.00 | 46 | 1020.6 |
| 20260903153034 | 88 | 218 | 7.0 | 13.0 | 0.00 | 0.00 | 0.00 | 46 | 1020.6 |
| 20260903150034 | 84 | 213 | 6.0 | 12.0 | 0.00 | 0.00 | 0.00 | 50 | 1020.7 |
| 20260903143034 | 82 | 211 | 7.0 | 13.0 | 0.00 | 0.00 | 0.00 | 52 | 1020.8 |
| 20260903140033 | 77 | 194 | 4.0 | 10.0 | 0.00 | 0.00 | 0.00 | 58 | 1020.8 |
| 20260903133034 | 74 | 201 | 3.0 | 7.0 | 0.00 | 0.00 | 0.00 | 62 | 1020.7 |
| 20260903130033 | 73 | 204 | 2.0 | 4.0 | 0.00 | 0.00 | 0.00 | 62 | 1020.1 |
| 20260903123034 | 73 | 195 | 2.0 | 4.0 | 0.00 | 0.00 | 0.00 | 61 | 1019.9 |
| 20260903120033 | 74 | 204 | 1.0 | 3.0 | 0.00 | 0.00 | 0.00 | 60 | 1020.1 |
| 20260903110033 | 75 | 216 | 3.0 | 5.0 | 0.00 | 0.00 | 0.00 | 57 | 1019.9 |
| 20260903103034 | 76 | 219 | 3.0 | 5.0 | 0.00 | 0.00 | 0.00 | 55 | 1020.2 |